Year,Month,Day,Hour,Minute,Value (Times are PST for temperature in C)
2014,04,20,00,04,8.20
2014,04,20,00,05,8.20
2014,04,20,08,24,7.90
2014,04,20,08,29,7.90
2014,04,20,08,34,7.90
2014,04,20,08,39,7.90
2014,04,20,08,44,7.90
2014,04,20,08,49,8.00
2014,04,20,08,54,8.10
2014,04,20,08,59,8.20
2014,04,20,09,04,8.30
2014,04,20,09,09,8.20
2014,04,20,09,14,8.30
2014,04,20,09,19,8.30
2014,04,20,09,24,8.40
2014,04,20,09,29,8.40
2014,04,20,09,34,8.50
2014,04,20,09,39,8.60
2014,04,20,12,24,11.30
2014,04,20,12,29,11.60
2014,04,20,12,34,11.70
2014,04,20,12,39,11.40
2014,04,20,12,44,11.40
2014,04,20,12,49,11.40
2014,04,20,12,54,11.60
2014,04,20,12,59,11.90
2014,04,20,13,04,12.10
2014,04,20,13,09,11.90
2014,04,20,13,14,11.80
2014,04,20,13,19,11.90
2014,04,20,13,24,12.10
2014,04,20,13,29,12.20
2014,04,20,13,34,11.80
2014,04,20,13,39,11.80
2014,04,20,13,44,12.00
2014,04,20,13,49,12.00
2014,04,20,13,59,12.10
2014,04,20,14,04,12.20
2014,04,20,14,09,12.30
2014,04,20,14,14,12.10
2014,04,20,14,19,11.90
2014,04,20,14,24,11.80
2014,04,20,14,29,11.80
2014,04,20,14,34,11.90
2014,04,20,14,39,11.80
2014,04,20,14,44,11.70
2014,04,20,14,49,11.90
2014,04,20,14,54,12.00
2014,04,20,14,59,11.90
2014,04,20,15,04,11.90
2014,04,20,15,09,12.00
2014,04,20,15,14,12.10
2014,04,20,15,19,12.30
2014,04,20,15,24,12.40
2014,04,20,15,29,12.40
2014,04,20,15,34,12.30
2014,04,20,15,39,12.00
2014,04,20,15,44,12.00
2014,04,20,15,49,11.80
2014,04,20,15,54,11.80
2014,04,20,15,59,11.80
2014,04,20,16,04,11.60
2014,04,20,16,09,11.70
2014,04,20,16,14,11.70
2014,04,20,16,19,11.80
2014,04,20,16,24,11.80
2014,04,20,16,29,11.80
2014,04,20,16,34,11.90
2014,04,20,16,39,11.90
2014,04,20,16,44,12.10
2014,04,20,16,49,12.20
2014,04,20,16,54,12.30
2014,04,20,16,59,12.30
2014,04,20,17,04,12.40
2014,04,20,17,09,12.60
2014,04,20,17,14,12.70
2014,04,20,17,19,13.10
2014,04,20,17,24,13.00
2014,04,20,17,29,13.00
2014,04,20,17,34,12.90
2014,04,20,17,39,13.00
2014,04,20,17,44,12.90
2014,04,20,17,49,12.90
2014,04,20,17,54,13.20
2014,04,20,17,59,13.40
2014,04,20,18,04,13.50
2014,04,20,18,09,13.30
2014,04,20,18,14,13.20
2014,04,20,18,19,13.10
2014,04,20,18,24,12.90
2014,04,20,18,29,12.80
2014,04,20,18,34,12.60
2014,04,20,18,39,12.50
2014,04,20,18,44,12.40
2014,04,20,18,49,12.30
2014,04,20,18,54,12.20
2014,04,20,18,59,12.10
2014,04,20,19,04,11.90
2014,04,20,19,09,11.80
2014,04,20,19,14,11.80
2014,04,20,19,19,11.80
2014,04,20,19,24,11.70
2014,04,20,19,29,11.60
2014,04,20,19,34,11.40
2014,04,20,19,39,11.30
2014,04,20,19,44,11.30
2014,04,20,19,49,11.20
2014,04,20,19,54,11.20
2014,04,20,19,59,11.20
2014,04,20,20,04,11.10
2014,04,20,20,09,11.10
2014,04,20,20,14,11.10
2014,04,20,20,19,11.00
2014,04,20,20,24,10.90
2014,04,20,20,26,10.90
